User: anonymous   Login
Location: Bois de la Silve
(44.4667°N, 6.7833°E)
Time: 22:31:35
(UTC+00:00)
Language:

SL-8 R/B - Orbit

View from above orbital plane
View from above orbital plane
View from above satellite
View from above satellite

Ground track
Ground track

The orbit data is extracted from the following two-line orbital elements,

1 33066U 08031G   20263.50464639 -.00000129 +00000-0 +11135-4 0  9998
2 33066 048.4436 301.8793 0007070 109.9520 250.2153 14.69713084657784
Epoch (UTC): 19 September 2020 12:06:41
Eccentricity: 0.0007070
inclination: 48.4436°
perigee height: 657 km
apogee height: 667 km
right ascension of ascending node: 301.8793°
argument of perigee: 109.9520°
revolutions per day: 14.69713084
mean anomaly at epoch: 250.2153°
orbit number at epoch: 65778

The dashed part of the orbit path shows where the satellite is in the earth's shadow,  

DLR